sat.trackr.live / text

‹ back to catalog

STARLINK-31738

NORAD 59535 · 2024-074B

PAYLOAD ACTIVE UNKNOWN

§ Identity

Operator
Country
US
Launch date
2024-04-18
Launch site
AFETR
Launch vehicle
Mass (kg)
RCS (m²)

Purposes: comms

External: N2YO · Heavens-Above · Gunter

§ Orbital elements

Epoch: 2026-09-21T10:19:44.448384Z

Period
94.27 min
Inclination
43.0026°
Eccentricity
0.0001318
Mean motion
15.27578915 rev/d
Perigee alt
482.1 km
Apogee alt
484.0 km
Semi-major
6,861.2 km
B*
3.3272e-5
RAAN
314.2590°
Arg perigee
274.6901°
Mean anomaly
85.3800°
Rev number
13,599

§ Raw data

STARLINK-317381 59535U 24074B   26264.43037556  .00000654  00000+0  33272-4 0  99922 59535  43.0026 314.2590 0001318 274.6901  85.3800 15.27578915135991

JSON: /api/v1/satellites/59535 · /tle

For live sub-satellite position, see the globe view (requires WebGL).

§ Visibility from observer

Set your observer location to see the next 7 days of passes ≥ 10°. The values pass through the URL so the page stays shareable.

No JS? Fill the form by hand. The geolocation button needs JavaScript.